CRR1 ZZZZ-CYXU

Flight info

Callsign CRR1
Flight time N/A
Altitude 8000
Route SIGTU·RNAV/15
Aircraft B77W

Departure

Time N/A
Airport ZZZZ

Arrival

Time 2026-04-25 03:10
Airport London International Airport (CYXU)
Time Latitude Longitude Altitude Speed Heading
2026-04-25 01:48 42.95087 -81.67529 4483 ft 296 kts 49°
2026-04-25 01:48 42.96380 -81.65329 4883 ft 297 kts 49°
2026-04-25 01:48 42.97655 -81.63102 5314 ft 298 kts 50°
2026-04-25 01:48 42.98909 -81.60854 5741 ft 297 kts 51°
2026-04-25 01:49 43.00162 -81.58585 5925 ft 302 kts 51°
2026-04-25 01:49 43.01406 -81.56310 5962 ft 303 kts 51°
2026-04-25 01:49 43.02655 -81.54001 6021 ft 301 kts 51°
2026-04-25 01:49 43.03904 -81.51673 6025 ft 300 kts 52°
2026-04-25 01:50 43.05137 -81.49365 6040 ft 300 kts 51°
2026-04-25 01:50 43.06367 -81.47055 6045 ft 301 kts 52°
2026-04-25 01:50 43.07588 -81.44760 6062 ft 302 kts 52°
2026-04-25 01:50 43.08841 -81.42402 6055 ft 305 kts 51°
2026-04-25 01:51 43.10088 -81.40054 6036 ft 304 kts 52°
2026-04-25 01:51 43.11235 -81.37709 6026 ft 299 kts 63°
2026-04-25 01:51 43.11805 -81.34965 6041 ft 295 kts 88°
2026-04-25 01:51 43.11545 -81.32264 6033 ft 280 kts 114°
2026-04-25 01:52 43.10559 -81.30126 6083 ft 257 kts 139°
2026-04-25 01:52 43.09172 -81.28825 6033 ft 228 kts 163°
2026-04-25 01:52 43.07736 -81.28320 6044 ft 212 kts 181°
2026-04-25 01:52 43.06290 -81.28394 6040 ft 205 kts 196°
2026-04-25 01:53 43.04921 -81.28855 6043 ft 201 kts 204°
2026-04-25 01:53 43.03702 -81.29707 6029 ft 193 kts 226°
2026-04-25 01:53 43.02799 -81.31033 6058 ft 191 kts 232°
2026-04-25 01:53 43.01908 -81.32401 6052 ft 194 kts 232°
2026-04-25 01:54 43.00999 -81.33788 6058 ft 197 kts 232°
2026-04-25 01:54 43.00085 -81.35183 6052 ft 197 kts 231°
2026-04-25 01:54 42.99174 -81.36571 6042 ft 195 kts 231°
2026-04-25 01:54 42.98270 -81.37949 6043 ft 195 kts 231°
2026-04-25 01:55 42.97464 -81.39405 6023 ft 189 kts 248°
2026-04-25 01:55 42.97091 -81.41096 6046 ft 187 kts 260°
2026-04-25 01:55 42.96970 -81.42866 6044 ft 188 kts 270°
2026-04-25 01:55 42.97153 -81.44637 6037 ft 190 kts 284°
2026-04-25 01:56 42.97691 -81.46299 6048 ft 194 kts 299°
2026-04-25 01:56 42.98581 -81.47710 6045 ft 200 kts 315°
2026-04-25 01:56 42.99779 -81.48719 6039 ft 206 kts 333°
2026-04-25 01:56 43.01187 -81.49181 6041 ft 213 kts 351°
2026-04-25 01:57 43.04146 -81.48415 6039 ft 223 kts 20°
2026-04-25 01:57 43.05395 -81.47133 6045 ft 227 kts 43°
2026-04-25 01:57 43.06459 -81.45509 6046 ft 230 kts 45°
2026-04-25 01:58 43.07506 -81.43859 6056 ft 230 kts 45°
2026-04-25 01:58 43.08564 -81.42213 6056 ft 231 kts 45°
2026-04-25 01:58 43.09631 -81.40569 6042 ft 231 kts 45°
2026-04-25 01:58 43.10691 -81.38934 6049 ft 229 kts 47°
2026-04-25 01:59 43.11372 -81.36989 6023 ft 228 kts 83°
2026-04-25 01:59 43.11156 -81.34879 6065 ft 228 kts 118°
2026-04-25 01:59 43.10173 -81.33238 6046 ft 221 kts 152°
2026-04-25 01:59 43.08809 -81.32600 6042 ft 199 kts 185°
2026-04-25 02:00 43.07515 -81.32918 6085 ft 184 kts 206°
2026-04-25 02:00 43.06457 -81.33772 6033 ft 173 kts 229°
2026-04-25 02:00 43.05654 -81.35008 6055 ft 176 kts 232°
2026-04-25 02:00 43.04835 -81.36254 6050 ft 176 kts 232°
2026-04-25 02:01 43.04014 -81.37505 6042 ft 177 kts 232°
2026-04-25 02:01 43.03209 -81.38733 6039 ft 175 kts 232°
2026-04-25 02:01 43.02399 -81.39970 6029 ft 173 kts 232°
2026-04-25 02:01 43.01805 -81.41339 6027 ft 165 kts 256°
2026-04-25 02:02 43.01682 -81.42890 6044 ft 165 kts 272°
2026-04-25 02:02 43.01965 -81.44410 6040 ft 168 kts 293°
2026-04-25 02:02 43.02698 -81.45665 6036 ft 173 kts 316°
2026-04-25 02:02 43.03799 -81.46385 6051 ft 182 kts 342°
2026-04-25 02:03 43.05090 -81.46353 6050 ft 192 kts
2026-04-25 02:03 43.06330 -81.45588 6028 ft 203 kts 37°
2026-04-25 02:03 43.07277 -81.44157 6073 ft 205 kts 45°
2026-04-25 02:03 43.08232 -81.42685 6050 ft 207 kts 44°
2026-04-25 02:04 43.09190 -81.41222 6034 ft 206 kts 44°
2026-04-25 02:04 43.10139 -81.39772 6038 ft 204 kts 44°
2026-04-25 02:04 43.11029 -81.38259 6035 ft 206 kts 60°
2026-04-25 02:04 43.11242 -81.36362 6032 ft 204 kts 104°
2026-04-25 02:05 43.10582 -81.34715 6061 ft 198 kts 143°
2026-04-25 02:05 43.09390 -81.33911 6057 ft 189 kts 179°
2026-04-25 02:05 43.08128 -81.34094 6056 ft 181 kts 206°
2026-04-25 02:05 43.07134 -81.35021 6045 ft 170 kts 232°
2026-04-25 02:06 43.06354 -81.36235 6046 ft 171 kts 232°
2026-04-25 02:06 43.05562 -81.37437 6056 ft 170 kts 232°
2026-04-25 02:06 43.04782 -81.38623 6039 ft 170 kts 232°
2026-04-25 02:06 43.03995 -81.39821 6025 ft 168 kts 232°
2026-04-25 02:07 43.03267 -81.41047 6028 ft 163 kts 246°
2026-04-25 02:07 43.03043 -81.42524 6057 ft 161 kts 270°
2026-04-25 02:07 43.03311 -81.44027 6041 ft 167 kts 295°
2026-04-25 02:07 43.04118 -81.45197 6049 ft 176 kts 323°
2026-04-25 02:08 43.05333 -81.45619 6053 ft 189 kts 357°
2026-04-25 02:08 43.06615 -81.45064 6037 ft 201 kts 31°
2026-04-25 02:08 43.07596 -81.43683 6078 ft 205 kts 45°
2026-04-25 02:08 43.08551 -81.42207 6036 ft 207 kts 44°
2026-04-25 02:09 43.09509 -81.40743 6029 ft 206 kts 44°
2026-04-25 02:09 43.10456 -81.39293 6033 ft 204 kts 44°
2026-04-25 02:09 43.11196 -81.37654 6018 ft 204 kts 76°
2026-04-25 02:09 43.11090 -81.35748 6061 ft 205 kts 117°
2026-04-25 02:10 43.10214 -81.34318 6040 ft 191 kts 156°
2026-04-25 02:10 43.08989 -81.33889 6060 ft 179 kts 189°
2026-04-25 02:10 43.07825 -81.34297 6050 ft 170 kts 213°
2026-04-25 02:10 43.06978 -81.35317 6061 ft 160 kts 233°
2026-04-25 02:11 43.06228 -81.36469 6044 ft 163 kts 232°
2026-04-25 02:11 43.05464 -81.37622 6056 ft 164 kts 232°
2026-04-25 02:11 43.04699 -81.38784 6054 ft 165 kts 232°
2026-04-25 02:11 43.03931 -81.39951 6039 ft 165 kts 232°
2026-04-25 02:12 43.03231 -81.41171 6025 ft 160 kts 249°
2026-04-25 02:12 43.03061 -81.42627 6056 ft 157 kts 272°
2026-04-25 02:12 43.03354 -81.44073 6039 ft 162 kts 295°
2026-04-25 02:12 43.04152 -81.45191 6040 ft 171 kts 324°
2026-04-25 02:13 43.05332 -81.45596 6053 ft 184 kts 356°
2026-04-25 02:13 43.06590 -81.45079 6045 ft 198 kts 29°
2026-04-25 02:13 43.07565 -81.43724 6086 ft 203 kts 45°
2026-04-25 02:13 43.08502 -81.42274 6031 ft 200 kts 44°
2026-04-25 02:14 43.09419 -81.40874 6024 ft 197 kts 44°
2026-04-25 02:14 43.10336 -81.39474 6038 ft 198 kts 44°
2026-04-25 02:14 43.11122 -81.37941 6013 ft 198 kts 71°
2026-04-25 02:14 43.11119 -81.36073 6067 ft 201 kts 112°
2026-04-25 02:15 43.10323 -81.34614 6047 ft 191 kts 153°
2026-04-25 02:15 43.09111 -81.34127 6058 ft 179 kts 189°
2026-04-25 02:15 43.07938 -81.34551 6054 ft 173 kts 214°
2026-04-25 02:15 43.07077 -81.35631 6069 ft 165 kts 233°
2026-04-25 02:16 43.06318 -81.36794 6039 ft 166 kts 232°
2026-04-25 02:16 43.05540 -81.37971 6032 ft 164 kts 232°
2026-04-25 02:16 43.04789 -81.39113 6046 ft 163 kts 232°
2026-04-25 02:16 43.04019 -81.40285 6050 ft 164 kts 232°
2026-04-25 02:17 43.03415 -81.41568 6032 ft 158 kts 257°
2026-04-25 02:17 43.03385 -81.43037 6057 ft 160 kts 279°
2026-04-25 02:17 43.03862 -81.44426 6040 ft 166 kts 306°
2026-04-25 02:17 43.04847 -81.45299 6043 ft 177 kts 338°
2026-04-25 02:18 43.06103 -81.45276 6051 ft 189 kts 11°
2026-04-25 02:18 43.07220 -81.44280 6042 ft 198 kts 45°
2026-04-25 02:18 43.08131 -81.42841 6073 ft 203 kts 44°
2026-04-25 02:18 43.09070 -81.41407 6038 ft 200 kts 44°
2026-04-25 02:19 43.09987 -81.40006 6027 ft 197 kts 44°
2026-04-25 02:19 43.10883 -81.38579 6032 ft 199 kts 53°
2026-04-25 02:19 43.11241 -81.36789 6032 ft 198 kts 98°
2026-04-25 02:19 43.10700 -81.35087 6063 ft 197 kts 138°
2026-04-25 02:20 43.09583 -81.34186 6048 ft 182 kts 176°
2026-04-25 02:20 43.08365 -81.34297 6064 ft 172 kts 205°
2026-04-25 02:20 43.07385 -81.35131 6038 ft 165 kts 232°
2026-04-25 02:20 43.06621 -81.36324 6040 ft 168 kts 232°
2026-04-25 02:21 43.05833 -81.37512 6054 ft 169 kts 232°
2026-04-25 02:21 43.05045 -81.38708 6042 ft 169 kts 232°
2026-04-25 02:21 43.04263 -81.39898 6032 ft 168 kts 232°
2026-04-25 02:21 43.03527 -81.41113 6034 ft 165 kts 244°
2026-04-25 02:22 43.03319 -81.42613 6065 ft 164 kts 273°
2026-04-25 02:22 43.03661 -81.44114 6041 ft 171 kts 298°
2026-04-25 02:22 43.04575 -81.45199 6045 ft 182 kts 330°
2026-04-25 02:22 43.05854 -81.45386 6037 ft 194 kts
2026-04-25 02:23 43.07064 -81.44515 6032 ft 204 kts 41°
2026-04-25 02:23 43.08012 -81.43047 6059 ft 208 kts 44°
2026-04-25 02:23 43.08973 -81.41569 6037 ft 208 kts 45°
2026-04-25 02:23 43.09923 -81.40115 6032 ft 206 kts 44°
2026-04-25 02:24 43.10854 -81.38635 6031 ft 206 kts 52°
2026-04-25 02:24 43.11264 -81.36805 6031 ft 203 kts 94°
2026-04-25 02:24 43.10787 -81.34991 6059 ft 204 kts 133°
2026-04-25 02:24 43.09680 -81.33923 6046 ft 191 kts 170°
2026-04-25 02:25 43.08408 -81.33914 6058 ft 181 kts 201°
2026-04-25 02:25 43.07317 -81.34663 6037 ft 173 kts 227°
2026-04-25 02:25 43.06521 -81.35877 6054 ft 172 kts 232°
2026-04-25 02:25 43.05720 -81.37092 6045 ft 172 kts 232°
2026-04-25 02:26 43.04925 -81.38299 6041 ft 170 kts 232°
2026-04-25 02:26 43.04133 -81.39504 6054 ft 171 kts 232°
2026-04-25 02:26 43.03348 -81.40727 6057 ft 171 kts 237°
2026-04-25 02:26 43.02975 -81.42207 6062 ft 165 kts 265°
2026-04-25 02:27 43.03143 -81.43768 6048 ft 169 kts 289°
2026-04-25 02:27 43.03859 -81.45055 6035 ft 176 kts 317°
2026-04-25 02:27 43.05020 -81.45658 6047 ft 186 kts 349°
2026-04-25 02:27 43.06316 -81.45313 6052 ft 197 kts 21°
2026-04-25 02:28 43.07361 -81.44060 6070 ft 204 kts 46°
2026-04-25 02:28 43.08306 -81.42583 6049 ft 208 kts 44°
2026-04-25 02:28 43.09269 -81.41109 6049 ft 208 kts 44°
2026-04-25 02:28 43.10234 -81.39634 6040 ft 207 kts 44°
2026-04-25 02:29 43.11096 -81.38065 6028 ft 207 kts 65°
2026-04-25 02:29 43.11211 -81.36156 6037 ft 205 kts 108°
2026-04-25 02:29 43.10473 -81.34535 6059 ft 200 kts 146°
2026-04-25 02:29 43.09255 -81.33821 6066 ft 187 kts 181°
2026-04-25 02:30 43.08010 -81.34089 6056 ft 179 kts 208°
2026-04-25 02:30 43.07045 -81.35055 6050 ft 170 kts 232°
2026-04-25 02:30 43.06262 -81.36275 6055 ft 172 kts 231°
2026-04-25 02:30 43.05462 -81.37487 6056 ft 172 kts 232°
2026-04-25 02:31 43.04670 -81.38690 6063 ft 172 kts 232°
2026-04-25 02:31 43.03866 -81.39914 6049 ft 173 kts 232°
2026-04-25 02:31 43.03136 -81.41204 6034 ft 170 kts 249°
2026-04-25 02:31 43.02968 -81.42745 6045 ft 164 kts 273°
2026-04-25 02:32 43.03308 -81.44221 6035 ft 166 kts 297°
2026-04-25 02:32 43.04158 -81.45313 6047 ft 174 kts 326°
2026-04-25 02:32 43.05380 -81.45658 6062 ft 190 kts 359°
2026-04-25 02:32 43.06653 -81.45046 6043 ft 204 kts 32°
2026-04-25 02:33 43.07644 -81.43619 6077 ft 210 kts 45°
2026-04-25 02:33 43.08605 -81.42131 6032 ft 206 kts 45°
2026-04-25 02:33 43.09552 -81.40681 6034 ft 203 kts 44°
2026-04-25 02:33 43.10495 -81.39235 6047 ft 204 kts 44°
2026-04-25 02:34 43.11059 -81.38168 6036 ft 207 kts 63°
2026-04-25 02:34 43.11230 -81.36283 6036 ft 203 kts 105°
2026-04-25 02:34 43.10547 -81.34639 6069 ft 200 kts 143°
2026-04-25 02:34 43.09351 -81.33841 6054 ft 188 kts 179°
2026-04-25 02:35 43.08100 -81.34036 6056 ft 179 kts 206°
2026-04-25 02:35 43.07108 -81.34948 6043 ft 169 kts 232°
2026-04-25 02:35 43.06330 -81.36165 6051 ft 172 kts 231°
2026-04-25 02:35 43.05527 -81.37381 6066 ft 173 kts 232°
2026-04-25 02:36 43.04719 -81.38606 6050 ft 174 kts 232°
2026-04-25 02:36 43.03916 -81.39826 6037 ft 171 kts 232°
2026-04-25 02:36 43.03179 -81.41073 6029 ft 166 kts 246°
2026-04-25 02:36 43.02963 -81.42569 6058 ft 164 kts 270°
2026-04-25 02:37 43.03244 -81.44099 6047 ft 170 kts 295°
2026-04-25 02:37 43.04071 -81.45268 6041 ft 178 kts 324°
2026-04-25 02:37 43.05298 -81.45678 6049 ft 191 kts 357°
2026-04-25 02:37 43.06584 -81.45113 6050 ft 202 kts 30°
2026-04-25 02:38 43.07583 -81.43720 6080 ft 209 kts 45°
2026-04-25 02:38 43.08546 -81.42226 6039 ft 207 kts 45°
2026-04-25 02:38 43.09494 -81.40771 6034 ft 203 kts 45°
2026-04-25 02:38 43.10435 -81.39329 6041 ft 204 kts 44°
2026-04-25 02:39 43.11187 -81.37690 6033 ft 206 kts 75°
2026-04-25 02:39 43.11115 -81.35786 6039 ft 201 kts 116°
2026-04-25 02:39 43.10250 -81.34323 6063 ft 198 kts 153°
2026-04-25 02:39 43.08994 -81.33809 6063 ft 185 kts 187°
2026-04-25 02:40 43.07780 -81.34222 6047 ft 177 kts 213°
2026-04-25 02:40 43.06898 -81.35280 6067 ft 170 kts 233°
2026-04-25 02:40 43.06106 -81.36502 6051 ft 172 kts 231°
2026-04-25 02:40 43.05303 -81.37720 6051 ft 172 kts 232°
2026-04-25 02:41 43.04506 -81.38928 6039 ft 170 kts 232°
2026-04-25 02:41 43.03718 -81.40129 6038 ft 169 kts 232°
2026-04-25 02:41 43.03077 -81.41431 6030 ft 163 kts 255°
2026-04-25 02:41 43.02986 -81.42942 6052 ft 164 kts 275°
2026-04-25 02:42 43.03396 -81.44425 6047 ft 172 kts 302°
2026-04-25 02:42 43.04339 -81.45448 6034 ft 180 kts 332°
2026-04-25 02:42 43.05605 -81.45624 6043 ft 190 kts
2026-04-25 02:42 43.06819 -81.44857 6031 ft 199 kts 38°
2026-04-25 02:43 43.07755 -81.43428 6074 ft 204 kts 45°
2026-04-25 02:43 43.08712 -81.41960 6075 ft 210 kts 44°
2026-04-25 02:43 43.09680 -81.40481 6045 ft 206 kts 44°
2026-04-25 02:43 43.10625 -81.39029 6036 ft 203 kts 46°
2026-04-25 02:44 43.11247 -81.37307 6037 ft 207 kts 83°
2026-04-25 02:44 43.11000 -81.35415 6045 ft 203 kts 123°
2026-04-25 02:44 43.10025 -81.34127 6054 ft 192 kts 161°
2026-04-25 02:44 43.08763 -81.33830 6064 ft 182 kts 192°
2026-04-25 02:45 43.07585 -81.34368 6052 ft 177 kts 218°
2026-04-25 02:45 43.06734 -81.35526 6071 ft 173 kts 232°
2026-04-25 02:45 43.05931 -81.36757 6052 ft 171 kts 231°
2026-04-25 02:45 43.05143 -81.37951 6041 ft 168 kts 232°
2026-04-25 02:46 43.04363 -81.39135 6049 ft 167 kts 232°
2026-04-25 02:46 43.03586 -81.40323 6039 ft 168 kts 232°
2026-04-25 02:46 43.03033 -81.41667 6034 ft 161 kts 258°
2026-04-25 02:46 43.03013 -81.43224 6034 ft 167 kts 279°
2026-04-25 02:47 43.03528 -81.44656 6042 ft 173 kts 307°
2026-04-25 02:47 43.04559 -81.45558 6046 ft 184 kts 338°
2026-04-25 02:47 43.05859 -81.45552 6043 ft 195 kts 10°
2026-04-25 02:47 43.07031 -81.44580 6043 ft 204 kts 43°
2026-04-25 02:48 43.07971 -81.43111 6059 ft 207 kts 45°
2026-04-25 02:48 43.08927 -81.41641 6046 ft 207 kts 45°
2026-04-25 02:48 43.09886 -81.40172 6068 ft 207 kts 44°
2026-04-25 02:48 43.10831 -81.38683 6060 ft 207 kts 51°
2026-04-25 02:49 43.11271 -81.36849 6040 ft 204 kts 92°
2026-04-25 02:49 43.10809 -81.35059 6061 ft 202 kts 133°
2026-04-25 02:49 43.09702 -81.33998 6055 ft 192 kts 169°
2026-04-25 02:49 43.08418 -81.33976 6062 ft 184 kts 200°
2026-04-25 02:50 43.07322 -81.34756 6039 ft 174 kts 228°
2026-04-25 02:50 43.06523 -81.35981 6053 ft 173 kts 232°
2026-04-25 02:50 43.05728 -81.37190 6048 ft 173 kts 232°
2026-04-25 02:50 43.04918 -81.38425 6034 ft 171 kts 232°
2026-04-25 02:51 43.04147 -81.39598 6020 ft 165 kts 232°
2026-04-25 02:51 43.03591 -81.40937 6035 ft 166 kts 262°
2026-04-25 02:51 43.03740 -81.42502 6056 ft 170 kts 287°
2026-04-25 02:51 43.04379 -81.43869 6052 ft 177 kts 312°
2026-04-25 02:52 43.05500 -81.44633 6041 ft 189 kts 344°
2026-04-25 02:52 43.06827 -81.44408 6046 ft 199 kts 17°
2026-04-25 02:52 43.07925 -81.43221 6056 ft 205 kts 45°
2026-04-25 02:52 43.08857 -81.41760 5939 ft 203 kts 45°
2026-04-25 02:53 43.09785 -81.40333 5515 ft 199 kts 44°
2026-04-25 02:53 43.10700 -81.38928 4893 ft 197 kts 45°
2026-04-25 02:53 43.11603 -81.37533 4312 ft 192 kts 45°
2026-04-25 02:53 43.12505 -81.36138 4147 ft 199 kts 45°
2026-04-25 02:54 43.13417 -81.34732 4005 ft 195 kts 45°
2026-04-25 02:54 43.14308 -81.33341 4006 ft 195 kts 49°
2026-04-25 02:54 43.14828 -81.31627 4010 ft 199 kts 83°
2026-04-25 02:54 43.14676 -81.29823 3981 ft 185 kts 119°
2026-04-25 02:55 43.13974 -81.28391 4035 ft 180 kts 132°
2026-04-25 02:55 43.13172 -81.27102 3895 ft 176 kts 137°
2026-04-25 02:55 43.12351 -81.25878 3544 ft 173 kts 140°
2026-04-25 02:55 43.11484 -81.24760 3108 ft 169 kts 144°
2026-04-25 02:56 43.10620 -81.23711 2650 ft 162 kts 144°
2026-04-25 02:56 43.09820 -81.22744 2439 ft 150 kts 142°
2026-04-25 02:56 43.09025 -81.21789 2256 ft 153 kts 141°
2026-04-25 02:56 43.08236 -81.20837 2046 ft 150 kts 139°
2026-04-25 02:57 43.07471 -81.19911 1840 ft 144 kts 137°
2026-04-25 02:57 43.06718 -81.19005 1608 ft 144 kts 135°
2026-04-25 02:57 43.05957 -81.18084 1388 ft 149 kts 134°
2026-04-25 02:57 43.05160 -81.17143 1254 ft 152 kts 136°
2026-04-25 02:58 43.04369 -81.16188 1054 ft 147 kts 133°
2026-04-25 02:58 43.03612 -81.15297 1147 ft 141 kts 135°
2026-04-25 02:58 43.02883 -81.14428 1467 ft 138 kts 133°
2026-04-25 02:58 43.02134 -81.13530 1869 ft 153 kts 136°
2026-04-25 02:59 43.01310 -81.12515 3113 ft 158 kts 140°
2026-04-25 02:59 43.00416 -81.11380 3877 ft 208 kts 143°
2026-04-25 02:59 42.99241 -81.10013 3969 ft 225 kts 146°
2026-04-25 02:59 42.98009 -81.08749 3922 ft 219 kts 149°
2026-04-25 03:00 42.96707 -81.07491 4028 ft 242 kts 148°
2026-04-25 03:00 42.95486 -81.05806 3994 ft 257 kts 121°
2026-04-25 03:00 42.94995 -81.03453 4015 ft 265 kts 90°
2026-04-25 03:00 42.95386 -81.01002 4006 ft 268 kts 60°
2026-04-25 03:01 42.96559 -80.99092 3980 ft 260 kts 30°
2026-04-25 03:01 42.98172 -80.98193 4015 ft 247 kts
2026-04-25 03:01 42.99862 -80.97798 4004 ft 247 kts
2026-04-25 03:01 43.01560 -80.97451 3972 ft 245 kts
2026-04-25 03:02 43.03234 -80.97113 3995 ft 243 kts
2026-04-25 03:02 43.04886 -80.97154 3986 ft 236 kts 334°
2026-04-25 03:02 43.06166 -80.98462 4016 ft 231 kts 306°
2026-04-25 03:02 43.07177 -81.00198 4022 ft 235 kts 307°
2026-04-25 03:03 43.08236 -81.01907 4004 ft 235 kts 308°
2026-04-25 03:03 43.09319 -81.03591 4024 ft 238 kts 308°
2026-04-25 03:03 43.10456 -81.05332 4016 ft 252 kts 309°
2026-04-25 03:03 43.11695 -81.07204 4030 ft 279 kts 310°
2026-04-25 03:04 43.13038 -81.09200 4018 ft 288 kts 310°
2026-04-25 03:04 43.14388 -81.11180 4014 ft 288 kts 310°
2026-04-25 03:04 43.15759 -81.13187 4020 ft 289 kts 311°
2026-04-25 03:05 43.18479 -81.17152 3983 ft 275 kts 310°
2026-04-25 03:05 43.19672 -81.19058 3906 ft 252 kts 298°
2026-04-25 03:05 43.20163 -81.21276 3842 ft 241 kts 270°
2026-04-25 03:05 43.19969 -81.23507 3802 ft 232 kts 256°
2026-04-25 03:06 43.19392 -81.25502 3677 ft 221 kts 236°
2026-04-25 03:06 43.18423 -81.27076 3456 ft 212 kts 230°
2026-04-25 03:06 43.17371 -81.28440 3114 ft 209 kts 210°
2026-04-25 03:06 43.15956 -81.28805 2937 ft 212 kts 172°
2026-04-25 03:07 43.14616 -81.28030 2931 ft 209 kts 152°
2026-04-25 03:07 43.13429 -81.26938 2899 ft 202 kts 149°
2026-04-25 03:07 43.12319 -81.25764 2890 ft 201 kts 143°
2026-04-25 03:07 43.11267 -81.24503 2865 ft 204 kts 142°
2026-04-25 03:08 43.10197 -81.23204 2584 ft 201 kts 142°
2026-04-25 03:08 43.09173 -81.21966 2288 ft 191 kts 141°
2026-04-25 03:08 43.08208 -81.20804 2014 ft 178 kts 138°
2026-04-25 03:08 43.07322 -81.19733 1767 ft 162 kts 137°
2026-04-25 03:09 43.06516 -81.18761 1536 ft 146 kts 135°
2026-04-25 03:09 43.05750 -81.17836 1354 ft 151 kts 136°
2026-04-25 03:09 43.04948 -81.16900 1169 ft 149 kts 134°
2026-04-25 03:09 43.04188 -81.15975 986 ft 144 kts 133°
2026-04-25 03:10 43.03489 -81.15115 926 ft 119 kts 137°
2026-04-25 03:10 43.03041 -81.14576 923 ft 53 kts 139°
2026-04-25 03:10 43.02813 -81.14303 927 ft 40 kts 139°
2026-04-25 03:10 43.02610 -81.14065 923 ft 36 kts 138°
2026-04-25 03:11 43.02466 -81.13891 916 ft 19 kts 141°
2026-04-25 03:11 43.02384 -81.13870 915 ft 13 kts 211°
2026-04-25 03:11 43.02326 -81.13949 914 ft 9 kts 229°
2026-04-25 03:11 43.02321 -81.14019 918 ft 8 kts 297°
2026-04-25 03:12 43.02361 -81.14073 917 ft 8 kts 325°
2026-04-25 03:12 43.02405 -81.14127 914 ft 9 kts 318°
2026-04-25 03:12 43.02449 -81.14181 915 ft 9 kts 317°
2026-04-25 03:12 43.02493 -81.14235 917 ft 9 kts 317°
2026-04-25 03:13 43.02560 -81.14317 917 ft 20 kts 318°
2026-04-25 03:13 43.02697 -81.14483 925 ft 30 kts 319°
2026-04-25 03:13 43.02834 -81.14648 917 ft 21 kts 319°
2026-04-25 03:13 43.02935 -81.14770 915 ft 15 kts 318°
2026-04-25 03:14 43.02989 -81.14837 914 ft 7 kts 318°
2026-04-25 03:14 43.03007 -81.14883 915 ft 5 kts 263°
2026-04-25 03:14 43.02984 -81.14903 915 ft 3 kts 194°
2026-04-25 03:14 43.02965 -81.14907 915 ft 0 kts 187°
2026-04-25 03:15 43.02959 -81.14908 915 ft 3 kts 185°
2026-04-25 03:15 43.02954 -81.14909 915 ft 0 kts 185°